Time,TemperatureF,DewpointF,PressureIn,WindDirection,WindDirectionDegrees,WindSpeedMPH,WindSpeedGustMPH,Humidity,HourlyPrecipIn,Conditions,Clouds,dailyrainin,SoftwareType,DateUTC
2013-09-08 00:00:00,62.9,60.0,29.89,SSW,213,1.0,-999.0,90,-99.99,,,0.04,weatherlink.com 1.10,2013-09-08 04:00:00,
2013-09-08 00:17:00,62.7,60.0,29.89,SSW,196,0.0,-999.0,91,-99.99,,,0.00,weatherlink.com 1.10,2013-09-08 04:17:00,
2013-09-08 00:42:00,62.3,60.0,29.88,SSW,199,0.0,-999.0,91,-99.99,,,0.00,weatherlink.com 1.10,2013-09-08 04:42:00,
2013-09-08 00:52:00,61.8,60.0,29.88,SSW,193,0.0,-999.0,92,-99.99,,,0.00,weatherlink.com 1.10,2013-09-08 04:52:00,
2013-09-08 01:01:00,61.6,60.0,29.88,SSW,202,0.0,-999.0,93,-99.99,,,0.00,weatherlink.com 1.10,2013-09-08 05:01:00,
2013-09-08 01:16:00,61.6,60.0,29.87,SW,215,0.0,-999.0,94,-99.99,,,0.00,weatherlink.com 1.10,2013-09-08 05:16:00,
2013-09-08 01:31:00,61.6,60.0,29.86,SSW,199,0.0,-999.0,95,-99.99,,,0.00,weatherlink.com 1.10,2013-09-08 05:31:00,
2013-09-08 01:46:00,61.8,60.0,29.87,South,186,0.0,-999.0,95,-99.99,,,0.00,weatherlink.com 1.10,2013-09-08 05:46:00,
2013-09-08 02:01:00,61.8,60.0,29.86,SW,220,0.0,-999.0,95,-99.99,,,0.00,weatherlink.com 1.10,2013-09-08 06:01:00,
2013-09-08 02:16:00,61.8,60.0,29.86,South,189,0.0,-999.0,95,-99.99,,,0.00,weatherlink.com 1.10,2013-09-08 06:16:00,
2013-09-08 02:31:00,62.0,61.0,29.85,SW,215,0.0,-999.0,95,-99.99,,,0.00,weatherlink.com 1.10,2013-09-08 06:31:00,
2013-09-08 02:46:00,62.0,61.0,29.86,SW,220,0.0,-999.0,95,-99.99,,,0.00,weatherlink.com 1.10,2013-09-08 06:46:00,
2013-09-08 03:01:00,61.8,61.0,29.85,SW,222,0.0,-999.0,96,-99.99,,,0.00,weatherlink.com 1.10,2013-09-08 07:01:00,
2013-09-08 03:16:00,61.8,61.0,29.85,West,271,0.0,-999.0,96,-99.99,,,0.00,weatherlink.com 1.10,2013-09-08 07:16:00,
2013-09-08 03:31:00,62.1,61.0,29.84,SW,216,0.0,-999.0,97,-99.99,,,0.00,weatherlink.com 1.10,2013-09-08 07:31:00,
2013-09-08 03:46:00,62.4,61.0,29.84,South,182,0.0,-999.0,96,-99.99,,,0.00,weatherlink.com 1.10,2013-09-08 07:46:00,
2013-09-08 04:01:00,62.4,61.0,29.84,South,182,0.0,-999.0,96,-99.99,,,0.00,weatherlink.com 1.10,2013-09-08 08:01:00,
2013-09-08 04:16:00,62.3,61.0,29.84,South,181,0.0,-999.0,96,-99.99,,,0.00,weatherlink.com 1.10,2013-09-08 08:16:00,
2013-09-08 04:31:00,62.3,62.0,29.85,South,181,0.0,-999.0,97,-99.99,,,0.00,weatherlink.com 1.10,2013-09-08 08:31:00,
2013-09-08 04:47:00,62.1,61.0,29.85,South,181,0.0,-999.0,97,-99.99,,,0.00,weatherlink.com 1.10,2013-09-08 08:47:00,
2013-09-08 05:01:00,62.0,61.0,29.85,South,181,0.0,-999.0,97,-99.99,,,0.00,weatherlink.com 1.10,2013-09-08 09:01:00,
2013-09-08 05:16:00,62.0,62.0,29.85,South,181,0.0,-999.0,98,-99.99,,,0.00,weatherlink.com 1.10,2013-09-08 09:16:00,
2013-09-08 05:31:00,62.1,62.0,29.86,SE,145,0.0,-999.0,99,-99.99,,,0.00,weatherlink.com 1.10,2013-09-08 09:31:00,
2013-09-08 05:46:00,62.0,62.0,29.86,SE,145,0.0,-999.0,99,-99.99,,,0.00,weatherlink.com 1.10,2013-09-08 09:46:00,
2013-09-08 06:01:00,61.8,62.0,29.87,SE,145,0.0,-999.0,99,-99.99,,,0.00,weatherlink.com 1.10,2013-09-08 10:01:00,
2013-09-08 06:16:00,61.5,61.0,29.87,SE,145,0.0,-999.0,98,-99.99,,,0.00,weatherlink.com 1.10,2013-09-08 10:16:00,
2013-09-08 06:31:00,61.0,61.0,29.88,SE,145,0.0,-999.0,98,-99.99,,,0.00,weatherlink.com 1.10,2013-09-08 10:31:00,
2013-09-08 06:46:00,60.7,61.0,29.89,SE,145,0.0,-999.0,99,-99.99,,,0.00,weatherlink.com 1.10,2013-09-08 10:46:00,
2013-09-08 07:01:00,60.5,60.0,29.89,SE,145,0.0,-999.0,99,-99.99,,,0.00,weatherlink.com 1.10,2013-09-08 11:01:00,
2013-09-08 07:16:00,60.4,60.0,29.90,SE,145,0.0,-999.0,100,-99.99,,,0.00,weatherlink.com 1.10,2013-09-08 11:16:00,
2013-09-08 07:31:00,60.7,61.0,29.91,SE,145,0.0,-999.0,100,-99.99,,,0.00,weatherlink.com 1.10,2013-09-08 11:31:00,
2013-09-08 07:46:00,61.2,61.0,29.91,SE,145,0.0,-999.0,100,-99.99,,,0.00,weatherlink.com 1.10,2013-09-08 11:46:00,
2013-09-08 08:01:00,62.4,62.0,29.91,SE,145,0.0,-999.0,100,-99.99,,,0.00,weatherlink.com 1.10,2013-09-08 12:01:00,
2013-09-08 08:16:00,63.4,63.0,29.91,SE,145,0.0,-999.0,100,-99.99,,,0.00,weatherlink.com 1.10,2013-09-08 12:16:00,
2013-09-08 08:31:00,64.2,64.0,29.90,SE,145,0.0,-999.0,100,-99.99,,,0.00,weatherlink.com 1.10,2013-09-08 12:31:00,
2013-09-08 08:46:00,65.2,64.0,29.90,SE,145,0.0,-999.0,95,-99.99,,,0.00,weatherlink.com 1.10,2013-09-08 12:46:00,
2013-09-08 09:01:00,66.1,64.0,29.89,SE,145,0.0,-999.0,91,-99.99,,,0.00,weatherlink.com 1.10,2013-09-08 13:01:00,
2013-09-08 09:17:00,66.9,64.0,29.89,SE,145,0.0,-999.0,91,-99.99,,,0.00,weatherlink.com 1.10,2013-09-08 13:17:00,
2013-09-08 09:32:00,67.9,65.0,29.89,SSE,147,0.0,-999.0,89,-99.99,,,0.00,weatherlink.com 1.10,2013-09-08 13:32:00,
2013-09-08 09:47:00,69.8,66.0,29.89,SSE,152,0.0,-999.0,86,-99.99,,,0.00,weatherlink.com 1.10,2013-09-08 13:47:00,
2013-09-08 10:02:00,72.5,66.0,29.88,NE,45,0.0,-999.0,81,-99.99,,,0.00,weatherlink.com 1.10,2013-09-08 14:02:00,
2013-09-08 10:17:00,75.1,64.0,29.87,North,0,1.0,-999.0,69,-99.99,,,0.00,weatherlink.com 1.10,2013-09-08 14:17:00,
2013-09-08 10:32:00,74.7,65.0,29.87,North,7,0.0,-999.0,71,-99.99,,,0.00,weatherlink.com 1.10,2013-09-08 14:32:00,
2013-09-08 10:47:00,74.6,65.0,29.88,NE,48,0.0,-999.0,72,-99.99,,,0.00,weatherlink.com 1.10,2013-09-08 14:47:00,
2013-09-08 11:02:00,76.1,63.0,29.87,NW,320,0.0,-999.0,65,-99.99,,,0.00,weatherlink.com 1.10,2013-09-08 15:02:00,
2013-09-08 11:17:00,76.1,66.0,29.87,North,357,0.0,-999.0,70,-99.99,,,0.00,weatherlink.com 1.10,2013-09-08 15:17:00,
2013-09-08 11:32:00,75.4,65.0,29.88,North,0,1.0,-999.0,70,-99.99,,,0.01,weatherlink.com 1.10,2013-09-08 15:32:00,
2013-09-08 11:47:00,74.0,63.0,29.89,North,349,0.0,-999.0,69,-99.99,,,0.02,weatherlink.com 1.10,2013-09-08 15:47:00,
2013-09-08 12:02:00,76.3,66.0,29.87,NNW,335,0.0,-999.0,70,-99.99,,,0.03,weatherlink.com 1.10,2013-09-08 16:02:00,
2013-09-08 12:17:00,78.3,63.0,29.87,NW,316,0.0,-999.0,60,-99.99,,,0.03,weatherlink.com 1.10,2013-09-08 16:17:00,
2013-09-08 12:32:00,76.8,64.0,29.87,South,171,0.0,-999.0,64,-99.99,,,0.04,weatherlink.com 1.10,2013-09-08 16:32:00,
2013-09-08 12:47:00,74.4,63.0,29.88,SE,141,0.0,-999.0,67,-99.99,,,0.04,weatherlink.com 1.10,2013-09-08 16:47:00,
2013-09-08 13:02:00,73.0,63.0,29.88,SE,138,0.0,-999.0,71,-99.99,,,0.04,weatherlink.com 1.10,2013-09-08 17:02:00,
2013-09-08 13:17:00,73.3,63.0,29.88,WNW,284,0.0,-999.0,71,-99.99,,,0.04,weatherlink.com 1.10,2013-09-08 17:17:00,
2013-09-08 13:32:00,74.7,65.0,29.87,SE,131,0.0,-999.0,71,-99.99,,,0.04,weatherlink.com 1.10,2013-09-08 17:32:00,
2013-09-08 13:47:00,76.1,66.0,29.86,SE,133,0.0,-999.0,71,-99.99,,,0.04,weatherlink.com 1.10,2013-09-08 17:47:00,
2013-09-08 14:02:00,77.0,63.0,29.86,NE,40,0.0,-999.0,62,-99.99,,,0.05,weatherlink.com 1.10,2013-09-08 18:02:00,
2013-09-08 14:17:00,77.0,62.0,29.86,NE,40,0.0,-999.0,61,-99.99,,,0.05,weatherlink.com 1.10,2013-09-08 18:17:00,
2013-09-08 14:32:00,77.7,60.0,29.86,West,278,0.0,-999.0,55,-99.99,,,0.05,weatherlink.com 1.10,2013-09-08 18:32:00,
2013-09-08 14:47:00,77.9,60.0,29.84,SSE,160,0.0,-999.0,55,-99.99,,,0.05,weatherlink.com 1.10,2013-09-08 18:47:00,
2013-09-08 15:02:00,79.4,66.0,29.84,SSW,192,0.0,-999.0,63,-99.99,,,0.05,weatherlink.com 1.10,2013-09-08 19:02:00,
2013-09-08 15:17:00,79.9,66.0,29.83,North,0,0.0,-999.0,62,-99.99,,,0.06,weatherlink.com 1.10,2013-09-08 19:17:00,
2013-09-08 15:32:00,80.9,65.0,29.83,NNW,333,0.0,-999.0,59,-99.99,,,0.06,weatherlink.com 1.10,2013-09-08 19:32:00,
2013-09-08 15:47:00,79.4,65.0,29.83,East,89,0.0,-999.0,62,-99.99,,,0.06,weatherlink.com 1.10,2013-09-08 19:47:00,
2013-09-08 16:02:00,78.1,65.0,29.83,East,89,0.0,-999.0,65,-99.99,,,0.06,weatherlink.com 1.10,2013-09-08 20:02:00,
2013-09-08 16:17:00,76.7,64.0,29.84,East,89,0.0,-999.0,65,-99.99,,,0.06,weatherlink.com 1.10,2013-09-08 20:17:00,
2013-09-08 16:32:00,76.1,63.0,29.84,East,89,0.0,-999.0,65,-99.99,,,0.06,weatherlink.com 1.10,2013-09-08 20:32:00,
2013-09-08 16:47:00,74.7,62.0,29.84,East,89,0.0,-999.0,65,-99.99,,,0.06,weatherlink.com 1.10,2013-09-08 20:47:00,
2013-09-08 17:02:00,73.3,65.0,29.84,East,89,0.0,-999.0,74,-99.99,,,0.06,weatherlink.com 1.10,2013-09-08 21:02:00,
2013-09-08 17:17:00,72.0,64.0,29.86,East,89,0.0,-999.0,77,-99.99,,,0.06,weatherlink.com 1.10,2013-09-08 21:17:00,
2013-09-08 17:32:00,71.5,66.0,29.86,East,89,0.0,-999.0,82,-99.99,,,0.06,weatherlink.com 1.10,2013-09-08 21:32:00,
2013-09-08 17:47:00,71.1,65.0,29.86,East,89,0.0,-999.0,82,-99.99,,,0.06,weatherlink.com 1.10,2013-09-08 21:47:00,
2013-09-08 18:02:00,71.1,66.0,29.86,East,89,0.0,-999.0,83,-99.99,,,0.06,weatherlink.com 1.10,2013-09-08 22:02:00,
2013-09-08 18:17:00,71.1,66.0,29.86,East,89,0.0,-999.0,83,-99.99,,,0.06,weatherlink.com 1.10,2013-09-08 22:17:00,
2013-09-08 18:32:00,71.1,66.0,29.87,East,89,0.0,-999.0,84,-99.99,,,0.06,weatherlink.com 1.10,2013-09-08 22:32:00,
2013-09-08 18:47:00,71.1,66.0,29.87,East,89,0.0,-999.0,84,-99.99,,,0.07,weatherlink.com 1.10,2013-09-08 22:47:00,
2013-09-08 19:02:00,70.6,65.0,29.87,East,89,0.0,-999.0,83,-99.99,,,0.07,weatherlink.com 1.10,2013-09-08 23:02:00,
2013-09-08 19:17:00,69.9,65.0,29.88,East,89,0.0,-999.0,84,-99.99,,,0.07,weatherlink.com 1.10,2013-09-08 23:17:00,
2013-09-08 19:32:00,69.6,65.0,29.87,East,89,0.0,-999.0,85,-99.99,,,0.07,weatherlink.com 1.10,2013-09-08 23:32:00,
2013-09-08 19:47:00,68.9,65.0,29.87,East,92,0.0,-999.0,86,-99.99,,,0.07,weatherlink.com 1.10,2013-09-08 23:47:00,
2013-09-08 20:02:00,68.3,64.0,29.87,East,92,0.0,-999.0,86,-99.99,,,0.07,weatherlink.com 1.10,2013-09-09 00:02:00,
2013-09-08 20:17:00,68.1,64.0,29.88,East,92,0.0,-999.0,86,-99.99,,,0.07,weatherlink.com 1.10,2013-09-09 00:17:00,
2013-09-08 20:32:00,67.8,64.0,29.87,East,92,0.0,-999.0,87,-99.99,,,0.07,weatherlink.com 1.10,2013-09-09 00:32:00,
2013-09-08 20:47:00,67.4,64.0,29.88,East,92,0.0,-999.0,87,-99.99,,,0.07,weatherlink.com 1.10,2013-09-09 00:47:00,
2013-09-08 21:02:00,67.1,64.0,29.88,East,92,0.0,-999.0,88,-99.99,,,0.07,weatherlink.com 1.10,2013-09-09 01:02:00,
2013-09-08 21:17:00,66.9,63.0,29.89,East,92,0.0,-999.0,88,-99.99,,,0.07,weatherlink.com 1.10,2013-09-09 01:17:00,
2013-09-08 21:32:00,66.4,63.0,29.88,East,92,0.0,-999.0,88,-99.99,,,0.07,weatherlink.com 1.10,2013-09-09 01:32:00,
2013-09-08 21:47:00,65.6,62.0,29.88,East,92,0.0,-999.0,88,-99.99,,,0.07,weatherlink.com 1.10,2013-09-09 01:47:00,
2013-09-08 22:02:00,65.3,62.0,29.89,East,92,0.0,-999.0,88,-99.99,,,0.07,weatherlink.com 1.10,2013-09-09 02:02:00,
2013-09-08 22:17:00,64.8,63.0,29.89,East,92,0.0,-999.0,92,-99.99,,,0.07,weatherlink.com 1.10,2013-09-09 02:17:00,
2013-09-08 22:32:00,64.5,63.0,29.89,East,92,0.0,-999.0,93,-99.99,,,0.07,weatherlink.com 1.10,2013-09-09 02:32:00,
2013-09-08 22:47:00,64.0,62.0,29.89,East,92,0.0,-999.0,93,-99.99,,,0.07,weatherlink.com 1.10,2013-09-09 02:47:00,
2013-09-08 23:02:00,63.4,62.0,29.90,East,92,0.0,-999.0,94,-99.99,,,0.07,weatherlink.com 1.10,2013-09-09 03:02:00,
2013-09-08 23:17:00,63.1,61.0,29.91,East,92,0.0,-999.0,94,-99.99,,,0.07,weatherlink.com 1.10,2013-09-09 03:17:00,
2013-09-08 23:32:00,62.6,62.0,29.90,East,92,0.0,-999.0,96,-99.99,,,0.07,weatherlink.com 1.10,2013-09-09 03:32:00,
2013-09-08 23:47:00,62.3,62.0,29.90,East,92,0.0,-999.0,97,-99.99,,,0.07,weatherlink.com 1.10,2013-09-09 03:47:00,